Theta_e
306 306 306 305 305 305 305 305 305 304 303 299 296 297 289 289 290 304 304 306 304 297 287 287 285 282 286 292 292 295 294 292 294 293 295 293 295 292 290 288 288 290 288 287 286 287 284 287 285 286 288 288 291 292 289 292 291 292 285 288 288 293 282 278 278 282 285 288 290 291 291 290 288 290 291 290 286 286 284 283 284 282 283 282 279 277 282
306 306 306 305 305 305 305 304 305 304 304 300 299 292 288 289 290 294 305 307 306 294 283 282 279 284 290 292 291 295 293 292 291 292 294 291 289 290 286 286 291 288 291 287 285 290 282 289 288 286 288 286 297 292 292 294 290 289 284 283 289 282 282 280 273 272 277 279 281 281 286 289 286 286 289 290 290 290 288 288 287 280 283 285 280 276 281
306 306 306 306 305 305 304 304 304 304 304 304 298 291 291 289 291 293 300 305 302 289 288 284 286 288 288 290 288 289 290 294 294 294 293 296 293 289 283 285 290 288 291 287 288 289 287 284 290 288 285 288 295 295 293 293 290 293 296 296 292 283 282 280 272 269 266 266 269 271 276 280 285 289 290 290 289 287 285 280 282 280 284 288 282 282 288
305 305 306 305 305 305 304 304 304 304 304 304 299 295 292 288 282 291 296 298 297 296 298 295 291 288 288 286 287 288 288 293 296 295 295 297 298 292 287 284 288 285 287 284 285 284 288 286 284 284 284 288 291 294 295 294 292 295 298 299 294 286 289 283 278 275 274 277 280 285 287 284 281 286 288 289 290 290 288 286 282 280 281 282 286 287 286
305 305 306 305 305 305 304 304 303 303 304 304 298 296 291 289 284 283 282 287 292 293 295 291 290 284 288 281 287 286 288 290 293 298 290 295 292 293 286 286 285 284 282 284 284 283 284 289 287 286 283 288 291 294 293 293 295 298 297 299 292 287 283 284 284 283 284 286 286 288 288 285 286 287 288 290 288 288 286 282 282 287 282 280 286 289 288
305 306 306 305 305 304 304 303 303 303 303 304 297 290 291 283 284 288 289 283 280 281 281 286 285 286 286 283 288 287 288 289 286 291 292 293 294 289 291 289 289 287 284 285 282 286 285 284 281 290 290 290 292 291 292 291 296 298 295 299 292 287 280 288 286 284 286 287 288 289 289 289 289 289 288 288 289 288 285 285 287 288 283 281 288 291 290
305 305 306 305 305 304 304 303 303 304 303 303 293 286 289 289 288 288 291 281 283 284 286 287 286 286 286 284 290 286 287 285 287 287 288 290 290 293 285 287 288 288 286 283 283 284 283 283 287 286 288 290 290 287 289 291 294 295 292 293 293 288 282 288 288 286 287 287 288 289 288 289 289 289 289 290 289 288 287 287 288 288 287 290 289 290 290
305 305 306 305 305 304 304 303 303 303 303 300 294 292 287 287 287 284 289 287 285 285 285 286 285 283 288 283 286 287 285 283 287 289 288 284 288 292 287 287 289 290 286 285 284 284 286 287 283 287 289 287 289 288 287 285 290 292 290 291 293 288 282 291 289 284 284 287 289 290 290 289 287 289 290 290 290 289 288 287 288 288 288 289 289 289 289
304 305 306 305 305 304 304 303 303 303 303 294 292 293 294 293 292 291 287 283 284 287 284 284 284 281 283 283 285 287 287 286 288 288 292 289 287 288 287 289 289 291 285 284 286 288 288 289 289 291 291 285 291 287 289 295 290 288 289 291 293 289 284 292 287 282 283 288 289 289 290 289 287 286 286 287 288 286 286 284 287 286 285 287 288 286 287
305 305 305 305 304 304 304 302 303 302 302 296 294 291 296 295 294 294 290 283 287 283 284 284 282 278 284 286 286 285 286 288 289 285 291 292 291 290 290 290 289 288 286 287 291 296 294 293 294 294 294 295 295 296 297 296 294 290 287 292 288 288 287 285 284 282 282 287 290 289 288 285 282 281 284 289 289 289 288 289 289 289 289 286 282 284 288
305 305 305 305 304 304 304 302 302 303 301 295 294 293 295 293 291 292 291 282 284 285 284 282 281 284 286 287 286 288 287 288 288 284 284 290 290 293 292 290 288 287 288 291 297 301 301 301 297 296 295 294 294 295 297 298 298 296 291 289 288 289 289 285 288 281 281 286 288 287 282 274 277 285 291 292 289 290 289 289 291 292 291 286 289 290 291
305 305 305 304 303 303 303 302 302 303 301 297 298 295 296 297 296 294 286 282 282 286 284 281 283 284 284 286 287 286 286 286 287 290 286 287 290 292 292 291 290 285 293 297 299 303 303 304 300 296 296 295 295 296 297 296 297 298 298 293 287 288 288 284 287 282 281 283 285 279 274 277 288 293 294 294 294 294 291 292 294 294 293 292 291 292 292
305 305 304 303 303 303 302 302 302 302 303 299 298 293 296 299 295 292 289 285 281 284 282 284 286 286 286 286 286 286 288 289 290 290 289 288 289 291 291 290 290 292 297 295 299 301 294 290 291 293 295 296 297 297 297 297 297 298 297 296 290 284 284 284 284 283 283 282 281 275 277 288 293 293 294 296 296 294 294 290 292 294 297 295 292 293 293
305 304 304 304 303 303 302 301 301 302 303 302 295 294 296 297 294 293 289 284 283 287 287 285 286 285 285 285 286 286 288 288 289 289 287 290 289 289 291 293 295 297 296 297 298 296 287 285 281 280 282 285 283 284 289 293 294 294 293 294 294 291 287 284 282 286 282 282 282 282 289 289 290 289 291 292 289 289 290 285 291 297 298 297 295 294 294
305 304 303 303 303 303 303 302 301 301 302 303 296 294 295 296 297 295 294 290 284 286 288 281 283 284 285 285 286 284 285 285 285 286 290 291 289 291 292 295 297 296 296 297 293 291 287 284 280 280 279 280 276 278 289 287 292 293 293 293 293 293 288 285 284 282 283 282 281 282 281 279 284 291 295 296 296 295 296 294 290 297 297 302 300 299 298
305 304 304 304 303 303 303 302 301 301 302 303 298 295 295 297 298 298 295 291 287 281 283 288 289 287 285 285 286 285 283 283 284 286 285 286 288 291 294 296 296 296 298 296 293 288 283 284 284 282 279 280 283 284 279 287 288 293 293 294 294 294 292 288 283 281 281 281 280 280 278 282 288 291 294 297 297 298 298 289 284 291 299 302 300 301 302
305 304 304 304 304 304 303 302 301 301 302 303 298 296 295 299 298 295 293 292 290 284 291 292 291 289 286 284 286 284 286 283 285 281 281 283 286 289 292 295 296 296 295 292 290 285 284 284 287 287 286 290 284 282 288 285 284 286 290 291 291 288 285 284 283 280 281 281 280 280 283 283 288 295 297 301 300 300 291 281 278 289 301 302 301 301 302
304 304 305 304 304 303 303 302 302 302 301 303 299 295 295 298 298 298 296 293 287 286 290 292 290 286 284 285 285 288 290 288 287 287 283 286 287 287 289 291 289 295 296 288 288 282 281 282 283 284 283 290 291 291 280 286 282 281 284 286 282 282 282 283 282 280 282 282 281 281 283 288 295 297 300 302 302 294 282 278 281 295 302 303 302 301 302
304 304 305 304 303 303 302 301 301 301 302 302 300 297 296 296 297 296 294 292 290 284 291 295 294 291 292 294 290 291 290 288 287 282 282 282 284 290 291 291 293 285 291 286 287 282 281 281 286 287 284 285 289 283 290 285 282 287 286 284 282 281 282 281 282 282 282 281 281 282 284 291 297 300 301 303 295 284 281 286 298 301 302 304 304 302 303
304 304 304 304 303 302 301 301 301 301 301 302 300 295 296 298 298 298 294 290 291 288 291 292 293 290 294 291 288 286 287 288 287 283 281 281 287 291 287 283 287 290 288 290 283 285 281 280 282 287 283 282 285 292 285 286 291 287 285 288 281 282 282 279 280 282 283 283 281 281 281 289 301 301 299 300 287 286 294 302 304 304 304 304 303 303 304
304 304 304 303 303 303 301 301 301 301 302 301 300 296 294 296 297 298 299 297 291 286 288 296 296 294 294 292 293 293 290 287 287 284 287 287 290 287 279 279 285 287 285 288 284 283 283 281 282 283 288 288 289 290 284 284 286 295 293 289 287 290 282 282 282 287 282 281 281 282 288 295 301 300 288 296 300 304 305 304 302 305 305 303 303 304 305
304 304 304 303 304 303 301 300 301 301 301 301 300 297 293 296 297 298 299 298 292 288 290 295 297 295 296 297 297 296 295 294 295 294 289 286 288 288 286 288 288 289 293 294 285 283 285 285 286 283 283 285 290 287 289 284 281 289 295 293 283 291 288 287 286 289 285 283 286 292 297 299 302 303 302 303 306 308 307 306 305 303 304 304 304 305 306
304 304 304 304 303 302 301 300 301 300 301 301 300 296 293 295 295 299 296 291 293 294 296 295 296 296 298 298 300 300 299 300 298 297 295 290 285 287 288 287 287 292 293 293 287 286 287 287 283 288 286 286 286 284 285 285 283 286 286 296 292 297 299 297 293 292 297 298 298 300 301 301 302 306 307 306 306 308 308 306 305 305 305 305 305 306 307
304 304 304 303 302 301 300 300 300 300 300 301 301 297 296 296 297 297 295 293 291 287 290 293 289 283 288 291 296 298 299 298 299 299 300 296 286 283 288 291 293 293 290 292 294 290 287 287 288 290 286 290 292 285 283 282 283 287 287 286 294 298 301 297 291 295 291 286 296 297 298 302 303 305 308 308 308 307 309 307 307 306 307 306 307 306 307
304 304 304 303 302 301 300 300 301 300 301 301 300 300 300 298 299 297 293 286 285 285 281 285 288 293 296 298 299 297 298 300 300 298 298 297 295 290 288 292 294 291 290 291 292 290 285 285 285 286 285 292 293 284 288 284 286 292 287 290 293 291 300 295 294 293 288 289 295 298 302 303 305 305 304 305 306 307 308 308 308 308 308 308 308 308 307
304 304 303 302 301 301 300 301 301 301 301 301 300 297 296 295 298 298 296 295 293 290 283 283 288 297 297 296 295 297 300 299 299 298 297 297 298 297 295 296 295 296 295 295 294 289 286 285 284 285 284 287 296 287 287 291 291 294 292 291 295 295 299 288 295 292 294 298 300 301 303 302 304 306 306 306 306 307 308 309 309 309 309 308 309 309 308
304 303 303 302 301 301 301 301 301 301 301 301 299 298 296 296 297 296 294 294 289 285 286 284 289 293 296 293 297 299 299 298 297 296 296 297 297 297 296 295 294 293 292 291 291 289 286 286 284 286 288 286 290 291 292 289 289 288 288 295 298 296 290 295 294 287 286 288 294 300 292 290 298 302 304 306 308 309 308 308 308 308 308 309 308 308 309
303 303 302 302 301 301 301 301 302 302 302 302 300 297 296 295 296 297 297 296 292 285 285 286 286 291 297 292 296 296 296 297 296 295 295 296 296 296 295 295 294 292 291 289 285 286 285 285 287 284 285 289 289 287 291 291 292 291 292 294 298 294 294 292 287 286 288 294 298 300 300 299 301 303 305 307 308 308 308 307 307 308 309 309 307 307 309
303 303 302 302 301 301 301 302 302 302 302 301 298 296 295 296 297 298 298 299 298 293 290 290 293 290 283 288 295 294 296 296 296 295 295 296 297 296 295 294 293 293 292 288 284 283 284 285 284 288 288 290 292 286 289 285 284 284 289 293 295 298 299 298 298 296 297 300 300 303 302 300 302 304 305 306 307 307 308 309 309 309 309 309 308 308 309
303 303 302 302 302 302 302 301 302 302 302 299 296 293 289 292 299 299 302 303 300 298 289 285 282 284 292 292 291 294 295 296 295 295 295 295 295 295 296 294 293 294 293 288 286 285 285 286 284 289 294 298 291 285 285 283 284 289 294 295 297 299 301 301 300 299 298 301 303 304 304 304 306 306 307 307 308 308 307 308 308 308 309 309 307 308 309
303 303 302 302 302 302 302 301 301 301 301 297 294 286 285 282 293 301 301 300 299 294 287 285 284 288 287 292 292 292 293 294 294 294 294 295 295 296 297 296 293 295 287 288 288 286 284 285 284 287 294 297 292 287 286 285 283 286 294 296 294 297 299 300 301 302 301 302 303 305 305 305 306 306 307 307 307 308 307 308 309 309 309 309 308 308 308
303 303 302 302 302 302 301 301 301 301 299 296 291 289 287 287 293 298 300 300 298 291 285 284 284 284 283 286 290 294 294 294 294 295 293 296 294 296 295 296 292 295 292 287 285 287 287 286 286 291 291 294 294 288 291 288 286 289 295 297 297 298 299 300 300 301 303 303 303 300 301 303 303 303 302 306 306 308 308 308 309 309 308 308 308 309 309
303 302 302 302 302 301 301 301 301 300 297 299 301 302 301 301 302 301 301 298 294 289 291 287 283 284 282 285 291 292 295 294 292 292 291 294 294 295 290 294 295 294 300 291 287 286 287 286 284 288 292 294 286 285 288 287 290 295 295 296 296 298 300 301 301 302 303 303 303 299 297 300 303 305 306 306 307 308 307 308 309 309 309 309 308 308 309
302 302 302 301 301 301 301 301 301 301 300 297 292 294 297 301 300 301 299 295 290 289 290 285 282 282 283 290 284 290 295 289 288 291 285 293 295 294 287 291 291 289 290 290 286 289 287 288 287 285 289 286 287 286 284 289 294 295 297 298 300 301 301 300 300 301 303 304 304 303 302 304 305 305 306 306 305 306 307 307 307 306 307 306 306 305 307
302 302 301 301 301 301 301 300 297 296 293 294 295 297 298 302 302 303 300 293 285 284 286 286 286 282 282 280 277 285 294 291 287 289 287 290 294 292 291 286 285 288 286 295 287 285 285 289 290 287 285 285 285 282 283 291 294 296 297 297 298 299 299 298 297 298 301 303 304 304 303 302 303 303 303 304 305 306 305 303 304 303 304 303 305 306 306
301 301 301 301 300 300 298 299 296 294 293 293 294 302 305 304 304 301 300 296 290 284 284 284 284 282 282 278 278 284 294 289 290 290 291 288 289 291 292 288 283 286 291 289 283 286 288 293 291 285 282 283 283 289 292 295 295 296 297 297 298 298 298 299 299 300 301 302 302 301 302 301 302 301 301 303 304 305 302 302 301 301 301 301 302 302 303
301 300 300 300 298 296 293 292 297 296 295 298 301 302 303 304 302 301 297 294 296 297 289 285 283 283 283 280 281 285 290 283 288 286 287 286 284 285 285 283 282 284 285 283 282 285 289 296 287 283 284 284 289 294 297 296 296 296 297 299 300 300 300 301 301 300 299 299 300 299 300 299 300 300 299 301 302 304 302 301 301 300 300 300 301 301 301
300 300 296 293 293 288 287 290 297 300 304 302 303 294 291 293 285 285 289 288 290 295 288 289 284 286 287 283 281 289 288 284 287 285 282 283 285 282 284 285 284 285 281 282 285 291 288 288 285 284 286 293 295 295 296 297 298 299 299 299 300 302 301 300 301 299 297 296 296 297 298 299 299 300 299 300 301 302 302 302 302 302 301 301 301 301 303
298 296 295 294 290 286 288 295 302 303 299 299 297 289 284 285 283 282 282 286 288 285 288 288 285 288 286 283 285 290 289 284 283 281 282 284 284 282 284 281 283 284 281 281 284 291 284 284 285 285 284 291 292 293 296 296 296 297 298 298 297 299 301 301 300 299 297 296 296 298 298 297 298 299 300 299 300 303 303 303 303 302 301 301 302 302 303
295 292 290 290 289 290 298 301 303 299 296 289 287 285 281 284 281 278 285 283 283 284 286 283 288 287 288 285 283 284 291 287 281 281 281 285 288 284 282 284 283 283 277 279 282 289 284 282 284 285 285 290 292 293 294 295 294 296 297 296 296 297 297 299 301 302 301 300 301 302 302 303 302 301 301 301 301 300 302 303 302 301 301 300 299 301 301
295 294 293 288 293 295 296 297 297 295 289 285 284 284 281 280 283 282 282 279 280 281 286 285 287 286 289 289 287 285 292 293 289 289 285 284 286 286 281 280 284 282 278 278 283 285 284 281 282 284 285 291 292 292 294 294 294 295 295 295 295 295 295 297 300 302 303 303 302 302 304 304 303 302 303 303 302 302 303 303 302 301 301 301 300 299 300
296 295 296 297 295 295 295 293 289 286 285 285 280 278 281 280 282 283 282 279 279 282 286 288 285 287 286 289 288 290 287 290 289 287 284 281 284 284 281 283 283 281 277 281 286 283 282 281 282 283 288 292 292 293 293 292 293 293 293 294 294 294 294 295 296 298 301 302 303 304 304 303 302 302 301 302 301 301 301 300 301 301 300 299 300 301 300
300 299 298 294 292 287 289 285 287 285 279 281 280 277 280 278 279 279 279 283 286 287 287 295 292 293 291 292 287 288 287 290 287 283 284 281 284 285 282 281 280 278 279 284 283 280 280 282 283 286 291 291 291 291 291 292 292 293 293 293 293 293 293 293 294 294 297 300 301 302 303 303 302 303 303 303 301 301 301 300 300 300 299 299 299 299 299
297 296 293 289 288 287 287 278 286 283 280 280 278 275 276 277 281 282 281 283 286 286 289 288 288 287 283 287 287 283 284 286 287 285 283 283 284 280 281 279 279 282 285 282 280 277 280 284 286 289 290 291 291 291 291 291 292 292 292 293 293 292 292 292 293 293 293 295 299 301 301 300 300 302 303 303 302 301 301 300 299 299 298 299 299 298 298
289 288 288 286 284 285 283 275 285 280 276 278 281 278 279 278 279 281 282 285 288 285 287 286 285 285 283 286 285 284 285 283 284 283 278 283 281 281 280 279 282 282 280 276 277 278 281 283 288 289 289 289 289 290 291 292 292 292 292 292 291 291 291 290 291 291 291 292 293 295 299 300 301 300 301 302 302 303 300 299 299 299 300 299 298 298 297
287 286 284 280 275 280 281 277 280 278 281 283 281 280 280 283 283 283 287 290 288 286 286 286 285 285 282 284 283 282 283 284 282 281 283 283 279 277 281 283 283 279 276 276 276 277 280 283 286 287 288 288 289 289 290 291 292 292 292 290 290 290 290 290 290 290 290 291 291 291 293 298 300 300 300 300 301 301 301 300 300 300 299 299 298 298 297
287 288 285 284 278 280 283 278 279 281 282 282 283 284 285 287 290 289 291 289 287 287 287 286 287 287 283 282 282 281 281 283 281 282 284 279 278 281 284 281 277 277 275 274 278 281 283 285 286 287 288 288 288 288 289 290 291 291 291 292 291 290 289 289 289 289 290 290 290 290 290 292 298 301 300 298 299 299 299 299 300 300 300 299 298 298 298
283 286 284 277 275 280 279 280 284 284 285 285 285 286 287 289 287 287 288 288 288 286 286 284 282 282 282 283 284 281 280 282 280 280 283 281 283 282 280 280 279 279 280 280 280 283 284 285 286 287 287 287 287 287 288 288 289 289 290 291 290 289 288 288 288 289 290 290 289 289 289 290 294 299 298 297 297 299 300 300 300 299 299 298 299 298 298
287 284 281 280 281 282 280 281 282 280 283 285 286 286 287 287 286 287 288 288 286 286 286 286 282 282 280 281 282 280 278 281 278 278 283 283 281 279 279 276 278 277 282 283 283 285 285 286 287 287 287 287 287 287 287 288 288 288 289 290 290 288 288 287 287 288 290 290 289 288 289 289 291 295 296 296 296 296 296 297 299 299 298 298 298 297 298
284 282 284 282 281 282 282 282 282 280 281 283 283 284 285 284 284 286 287 286 286 285 284 284 284 282 281 281 278 279 279 282 282 282 280 278 280 279 277 274 278 278 280 284 285 286 287 287 287 286 286 286 286 286 286 287 287 288 289 290 290 288 287 286 286 287 289 289 288 288 288 289 289 290 291 292 294 296 295 294 295 296 297 297 298 298 296
286 283 282 283 281 280 281 278 278 278 280 280 281 283 283 284 285 285 288 288 285 282 280 281 281 281 280 278 278 277 279 283 280 280 281 281 283 281 279 277 279 282 283 286 288 288 286 286 285 285 284 284 285 285 286 286 287 287 288 288 289 288 287 286 286 286 288 289 288 287 287 287 288 289 291 292 292 292 293 293 292 293 294 296 296 295 294
282 280 280 281 284 283 283 282 282 281 282 283 283 285 284 283 285 287 288 284 281 282 280 281 280 279 277 277 279 281 282 281 278 279 279 281 283 280 280 281 282 284 285 285 286 286 286 285 285 284 284 284 284 285 285 286 286 286 287 287 288 287 286 285 285 285 287 288 287 287 287 287 287 288 289 289 289 289 289 290 290 290 291 293 294 293 293
Wind_Speed
20 21 21 21 22 23 24 24 25 22 22 10 9 4 3 3 2 2 4 2 4 2 2 1 0 2 5 4 4 5 7 6 5 7 6 4 2 1 2 3 2 5 5 2 4 3 5 4 6 2 5 5 8 2 0 4 11 4 3 3 2 6 2 2 5 5 5 8 10 10 9 8 5 3 2 4 3 4 6 6 5 3 2 1 1 1 8
18 20 20 22 22 22 22 23 24 22 19 9 7 2 1 2 2 3 1 1 1 2 2 5 4 5 6 5 11 7 8 4 6 3 10 2 2 2 1 3 7 6 1 2 4 3 4 4 6 5 4 4 4 6 5 5 2 1 3 4 3 4 2 2 2 4 7 7 6 3 2 1 2 2 3 6 6 5 4 2 1 4 5 6 5 5 5
16 18 20 20 23 21 21 22 22 22 20 12 3 2 3 3 2 3 2 1 1 1 3 1 7 7 8 10 15 9 2 5 8 7 11 10 3 0 4 4 1 3 3 5 6 7 8 5 6 3 2 4 3 7 7 8 7 6 8 3 4 4 2 5 3 2 1 2 1 1 4 5 6 4 5 7 11 10 4 6 0 3 5 6 3 5 11
17 18 20 19 20 21 21 21 21 23 22 16 1 1 1 2 3 3 2 1 1 2 2 4 6 6 8 13 7 3 8 5 2 10 11 9 2 6 0 3 1 2 3 4 2 2 7 7 2 2 3 3 3 4 8 10 7 8 11 8 3 1 0 3 4 6 7 9 5 6 3 4 3 8 9 7 8 8 6 3 2 8 4 4 9 8 7
17 18 19 18 19 19 21 21 22 24 24 18 2 1 3 1 2 2 5 6 1 3 2 3 3 5 5 4 3 6 9 11 6 5 5 4 12 2 3 1 3 4 1 4 5 3 2 9 8 6 4 6 6 7 9 6 10 13 8 7 1 1 1 3 5 6 7 3 7 11 8 10 11 8 8 10 9 3 3 3 9 10 5 10 4 5 7
16 17 18 18 18 20 19 20 22 25 26 23 2 3 1 2 1 3 1 1 4 6 4 4 9 9 3 6 2 5 8 7 9 12 3 12 5 6 0 2 4 5 8 5 4 8 8 2 1 4 3 5 3 2 5 6 8 9 4 2 3 3 1 3 3 5 7 7 9 10 9 7 9 10 8 8 11 11 9 9 14 5 6 7 4 0 4
15 17 17 17 18 19 19 19 20 23 24 18 3 4 4 2 1 1 5 4 3 2 10 11 9 12 5 4 2 7 8 11 6 4 11 9 7 5 11 10 16 17 2 3 3 1 7 4 0 1 4 4 5 2 3 3 6 7 3 3 2 3 1 2 2 4 7 8 9 8 9 7 7 8 9 10 10 10 12 15 12 9 10 4 7 6 6
15 16 16 17 17 18 20 20 18 19 23 11 6 6 3 4 4 4 2 3 5 6 4 4 7 8 9 3 4 7 6 9 13 9 5 9 9 10 12 17 18 17 0 5 3 6 6 5 3 3 1 7 1 2 2 1 2 6 4 4 1 3 2 3 2 4 9 9 7 5 4 4 5 8 7 6 6 8 10 9 10 11 10 5 7 6 9
15 15 16 15 16 17 19 19 18 17 16 4 5 3 4 2 0 1 5 7 5 4 3 7 7 6 4 7 9 10 9 12 12 13 9 6 6 10 14 18 18 9 3 5 9 11 8 7 12 10 5 4 4 1 2 2 3 2 3 2 2 4 2 4 2 3 6 4 5 9 8 4 4 6 5 3 4 4 4 6 7 8 8 4 2 5 6
15 15 15 14 14 16 17 18 17 14 12 3 3 3 4 2 2 1 1 3 4 7 5 6 5 2 2 5 8 6 13 12 14 13 5 4 10 7 14 17 13 10 7 7 10 12 7 11 12 11 11 9 7 6 6 4 1 1 2 1 3 3 5 3 3 1 5 8 8 10 10 7 7 7 5 1 4 5 7 7 7 8 5 5 6 8 6
14 15 14 12 14 15 15 15 15 12 7 6 5 3 5 4 5 4 1 3 1 3 8 5 3 3 7 11 13 11 9 11 11 8 7 11 18 18 15 14 10 10 9 14 15 9 12 8 6 5 6 6 8 8 9 9 7 6 2 1 2 4 5 4 4 3 2 4 6 7 3 2 4 1 1 2 5 9 7 7 8 10 3 6 7 8 7
14 14 11 12 14 13 14 15 13 13 7 2 2 3 2 3 5 2 1 4 6 3 2 5 7 5 10 12 9 12 14 14 13 6 11 11 16 13 12 11 10 8 14 18 15 10 9 4 3 4 6 8 10 11 11 12 10 7 7 5 3 5 5 3 3 1 3 3 2 1 0 5 5 9 7 6 7 2 5 10 10 11 8 6 9 8 6
14 11 11 13 13 12 13 13 13 12 9 4 3 3 2 4 4 2 2 2 4 6 8 8 8 11 10 9 11 11 12 13 11 12 11 10 14 13 6 8 9 13 19 19 17 10 5 3 5 2 4 4 8 10 11 12 13 12 9 10 5 4 6 4 2 2 0 1 2 2 5 8 13 14 10 5 2 2 4 7 3 5 9 8 8 10 10
12 9 10 12 12 12 12 13 13 12 12 6 3 3 3 3 4 3 0 3 7 4 7 11 9 6 8 12 10 13 12 10 10 8 8 6 10 11 12 9 12 16 15 14 8 4 4 5 2 5 4 5 1 2 3 6 10 9 8 9 9 8 3 5 2 1 2 1 2 5 3 7 7 8 4 2 2 2 3 1 7 8 6 8 7 9 10
11 8 9 11 12 12 12 12 12 12 11 8 2 3 4 4 3 3 1 2 6 10 4 5 2 6 10 11 9 11 9 10 12 10 8 7 4 3 9 12 15 16 16 8 7 4 1 1 4 5 4 6 3 3 3 2 4 5 8 8 6 10 8 4 4 2 3 2 2 2 1 2 6 9 5 2 3 4 4 4 5 4 2 3 5 5 5
10 8 9 10 11 11 12 12 12 11 10 8 3 4 5 4 4 4 3 3 4 8 2 5 4 8 7 7 7 9 9 10 8 10 11 6 6 18 14 12 15 14 10 6 3 3 4 4 3 3 2 3 3 2 3 4 5 8 8 1 5 2 3 5 5 2 2 0 2 2 2 6 7 8 7 3 4 4 4 2 4 3 2 4 3 6 7
10 10 11 11 10 11 12 11 11 11 10 9 3 4 4 1 2 3 4 3 4 10 7 10 10 6 7 8 4 3 4 7 8 8 9 11 13 13 13 16 12 6 12 6 5 5 7 6 2 1 2 2 3 2 4 2 6 8 10 5 5 3 1 2 1 1 4 4 2 3 3 5 3 3 4 1 2 1 2 3 4 2 6 5 4 4 7
11 11 12 12 9 10 12 12 12 11 10 10 5 3 5 4 2 2 3 4 5 7 5 6 1 4 5 5 9 6 4 4 4 4 5 8 8 5 11 11 8 8 7 6 5 5 5 5 8 3 2 2 4 2 4 5 4 3 6 7 3 1 2 0 6 4 3 4 3 2 4 3 6 9 12 3 1 1 3 8 3 4 7 7 5 6 4
10 12 12 10 11 12 13 13 12 11 9 9 5 5 4 2 3 2 3 5 4 7 3 6 6 10 11 8 8 6 4 4 5 5 8 8 2 5 13 11 2 6 10 5 4 3 3 2 2 2 3 5 3 3 4 4 4 3 3 7 5 4 1 1 0 2 3 2 2 5 3 1 5 6 6 4 3 2 6 3 2 6 8 7 6 8 7
10 11 10 9 11 12 13 13 11 10 10 9 5 4 6 5 4 3 5 6 4 11 10 11 9 13 7 6 6 6 6 8 4 4 1 6 3 12 10 6 4 3 7 1 4 2 3 5 4 3 3 3 3 2 2 3 3 2 3 4 2 2 2 2 2 3 1 1 3 5 5 2 1 9 6 1 1 6 4 7 9 4 6 7 7 6 8
10 11 10 10 12 12 13 12 11 10 10 10 6 5 5 2 4 3 4 6 8 12 8 3 4 6 4 8 10 11 9 12 10 6 7 7 6 4 4 2 6 5 4 4 6 5 3 4 5 2 2 3 4 2 4 5 5 4 2 2 2 2 2 3 2 0 0 1 1 2 4 9 8 4 4 4 7 4 7 6 9 10 7 5 6 7 5
11 10 10 11 12 13 13 11 10 10 11 10 8 4 7 3 4 3 5 3 7 8 8 8 10 14 16 14 15 13 14 16 18 12 9 8 3 5 5 6 8 1 3 1 3 3 4 2 2 2 4 5 2 3 5 5 4 3 2 1 4 2 2 2 3 2 1 3 4 7 4 8 9 7 6 6 5 1 3 5 7 9 8 3 6 7 7
11 11 11 12 13 13 11 9 9 10 11 10 7 3 6 6 5 4 4 6 5 7 9 11 8 11 12 14 14 14 14 13 14 10 9 9 7 4 7 6 8 3 3 1 1 2 4 2 4 3 4 2 2 6 2 3 3 3 4 2 6 4 2 2 1 4 4 5 9 7 5 9 10 6 6 6 6 5 2 5 8 8 8 6 7 8 6
11 11 10 11 12 12 11 9 9 10 10 10 6 4 5 4 6 5 4 4 5 9 7 6 1 4 3 7 7 4 6 8 10 13 11 10 7 5 2 6 3 3 3 2 1 1 3 1 5 1 4 4 3 3 4 4 3 3 2 5 1 2 2 2 3 3 3 5 5 9 10 7 6 3 6 3 3 4 3 6 8 11 11 9 7 6 5
11 10 9 9 12 12 11 10 10 11 11 11 9 6 6 6 3 3 4 5 3 3 7 6 7 14 13 13 10 11 9 8 5 7 8 10 13 10 12 6 5 5 8 5 1 3 1 1 4 1 5 4 2 6 2 1 8 1 6 6 2 3 2 2 7 5 4 6 6 6 6 7 6 4 4 4 7 8 8 7 8 9 12 9 9 8 8
11 10 10 10 10 11 11 10 10 10 11 12 11 6 6 8 4 4 6 6 6 4 6 7 5 1 4 11 13 9 9 8 10 12 11 12 14 16 17 10 6 5 5 1 1 2 2 2 3 3 2 6 1 2 5 5 9 7 6 12 7 3 2 3 2 3 8 8 9 7 6 6 3 3 3 3 5 5 8 11 12 12 11 9 12 12 10
10 9 9 9 11 11 11 10 10 10 10 11 8 5 6 8 5 5 6 4 4 4 4 7 9 8 4 16 17 12 7 5 6 8 9 11 13 12 12 11 11 7 5 5 1 2 1 3 2 5 4 5 2 5 5 6 3 5 5 8 1 0 4 2 1 4 6 4 7 3 5 6 9 9 8 6 6 5 6 8 10 12 10 10 12 15 16
10 9 8 10 11 11 11 11 10 10 11 12 8 7 6 8 7 7 8 7 5 5 5 7 10 15 14 14 5 4 11 10 8 9 9 10 11 11 12 13 11 7 4 3 4 2 3 3 7 4 2 3 2 6 3 6 3 4 5 7 3 3 4 2 3 2 6 9 7 2 3 6 8 9 5 4 5 5 6 7 11 12 11 7 8 13 7
10 10 11 11 11 12 12 11 10 8 10 9 5 8 8 7 8 7 8 7 7 6 6 8 9 7 5 12 19 16 8 3 8 9 9 11 10 9 10 12 11 9 3 2 3 2 3 6 2 3 3 4 1 5 3 4 3 7 9 8 3 6 5 6 8 5 7 9 6 2 2 6 8 7 8 3 3 2 5 10 12 12 12 12 9 6 3
11 11 11 11 12 12 12 11 10 9 8 4 3 2 3 3 1 3 3 3 2 3 4 4 8 5 5 5 11 10 13 14 10 8 9 8 9 9 9 9 9 8 6 5 5 5 5 3 3 3 3 3 2 2 1 1 3 8 11 9 8 6 6 7 4 4 6 2 1 1 5 7 7 7 7 7 2 1 1 5 11 13 16 12 9 8 3
11 11 11 11 11 11 12 11 11 8 7 2 2 2 1 1 1 2 6 5 5 1 2 2 7 7 8 4 5 12 14 15 13 12 11 8 9 10 7 6 5 8 6 4 2 7 1 3 1 3 0 4 4 1 3 2 5 4 10 11 5 6 8 9 6 5 4 4 2 2 3 5 6 6 4 2 6 4 5 6 9 11 14 17 13 5 5
12 11 11 11 11 12 12 11 11 9 3 4 5 4 4 3 2 9 9 3 5 2 1 5 6 2 5 6 4 4 10 13 7 4 3 2 5 2 4 8 6 8 7 6 4 1 5 5 2 6 4 5 3 2 2 3 5 9 14 16 11 7 8 7 3 3 2 2 0 2 4 7 3 2 6 4 5 5 4 8 10 10 11 11 6 5 4
11 11 11 11 12 13 13 12 11 8 4 7 13 18 21 25 24 19 12 5 1 2 1 2 4 3 3 6 10 8 2 4 3 2 6 2 3 2 3 2 2 2 3 4 2 4 5 4 1 3 5 3 2 2 2 3 4 11 16 15 14 8 4 3 3 3 3 3 0 0 3 5 6 7 6 4 5 6 8 9 10 10 9 10 6 9 10
11 11 11 12 13 14 13 12 12 12 10 6 7 7 7 14 14 20 6 3 2 2 1 1 3 4 7 5 5 9 2 4 5 3 5 6 2 2 3 2 2 1 2 7 5 1 2 1 4 5 3 1 0 1 3 8 16 14 14 17 13 10 7 6 4 4 3 1 0 1 4 6 4 3 6 7 6 8 10 9 6 7 7 2 3 3 2
10 11 11 13 14 14 14 13 7 4 5 4 6 6 6 11 11 4 7 5 2 0 1 2 1 4 5 4 2 8 2 2 4 3 1 6 1 2 3 1 2 1 4 1 0 2 3 4 5 1 4 2 4 3 2 10 16 13 12 12 16 16 14 8 5 5 5 4 4 5 6 5 5 4 5 7 9 10 12 8 4 4 8 5 6 6 6
10 10 12 13 15 13 6 4 4 4 4 5 6 2 2 1 4 4 8 2 2 1 1 1 2 4 2 4 4 5 3 5 3 2 3 1 6 3 1 0 2 5 1 0 4 1 2 3 3 2 3 4 1 3 7 10 11 13 14 13 13 12 12 14 8 7 5 6 8 9 12 11 8 3 1 1 3 8 6 6 9 6 7 7 6 6 7
8 9 12 13 6 1 3 2 2 5 5 3 3 6 6 3 2 4 2 1 1 1 3 1 4 6 5 4 2 6 4 6 3 4 4 3 3 3 2 2 1 3 2 2 2 2 7 1 2 4 3 3 3 4 7 8 8 11 12 13 13 15 14 9 6 4 7 8 11 10 8 10 13 9 4 4 3 4 6 7 5 5 6 7 6 6 5
7 9 3 1 1 1 1 2 2 3 7 5 5 2 3 2 0 1 0 0 2 1 2 2 7 3 2 2 7 6 1 6 2 2 4 1 2 3 1 0 3 1 4 2 4 3 0 2 3 4 3 1 1 6 10 11 10 10 12 13 11 9 9 8 7 6 7 8 10 10 11 11 12 12 7 4 3 5 4 2 3 2 1 4 5 5 7
6 2 1 2 1 2 1 1 1 6 4 1 1 1 1 0 0 1 1 1 0 3 2 4 6 4 5 5 8 3 4 3 5 2 1 4 1 6 2 3 5 2 2 2 6 3 3 3 2 3 3 7 7 13 13 12 12 12 15 15 14 15 12 9 5 4 3 3 1 1 1 3 5 9 10 7 4 3 4 4 3 4 4 5 6 6 7
2 3 2 2 3 3 3 2 5 4 1 0 1 1 1 1 2 2 1 1 2 1 2 6 4 5 8 10 4 7 1 3 1 5 2 7 1 1 2 1 2 1 2 1 4 3 2 3 2 2 5 7 9 12 13 12 13 14 12 14 17 18 18 15 11 5 1 2 2 2 3 3 3 5 7 10 9 3 2 2 2 3 5 6 7 7 5
2 1 2 2 2 2 3 4 4 0 0 0 0 0 0 1 2 2 1 2 2 3 3 4 1 3 4 4 3 6 6 1 3 2 1 3 3 1 2 1 1 0 2 1 3 2 1 2 2 2 3 6 9 11 10 12 14 14 14 16 17 17 18 18 16 13 12 10 6 6 7 4 4 4 3 7 10 8 6 1 3 4 6 7 8 5 3
1 1 0 2 3 3 2 1 1 1 0 1 1 2 2 2 1 1 2 2 4 1 2 3 2 3 2 8 6 4 5 3 1 0 1 1 2 2 3 1 1 0 1 1 1 1 2 2 2 1 3 7 9 9 11 12 12 12 14 15 16 16 18 17 17 17 15 12 11 9 6 5 5 5 4 6 9 5 6 1 4 4 5 4 5 7 7
3 4 2 1 1 1 1 0 1 1 1 1 1 2 1 1 2 3 2 1 1 0 1 3 1 2 3 2 3 2 2 1 1 2 1 2 2 0 0 1 0 1 2 2 1 1 2 1 2 3 7 7 7 9 9 9 11 12 13 12 13 15 15 16 16 15 15 15 13 12 10 7 7 6 4 6 5 2 1 1 2 3 4 5 5 5 5
1 0 0 1 0 3 1 1 1 1 1 1 2 2 1 1 4 0 1 1 0 1 1 1 2 4 3 2 1 3 4 4 2 1 2 1 0 1 0 1 1 4 0 1 1 1 2 1 2 4 6 7 8 10 11 11 12 12 13 14 14 15 17 17 17 18 19 17 16 15 12 8 4 7 9 7 7 6 4 1 2 4 4 5 6 5 3
1 1 0 0 0 2 1 1 1 2 3 3 2 2 2 3 3 2 3 2 2 1 1 1 2 4 2 4 1 2 1 2 2 1 2 0 1 1 0 2 1 1 0 3 1 2 1 3 4 6 8 8 9 10 11 10 10 12 13 13 16 17 17 17 17 16 15 15 16 15 12 12 10 8 7 7 4 2 4 2 0 4 5 6 5 6 4
1 2 2 2 1 2 2 1 1 1 1 3 3 5 3 5 3 4 3 1 1 2 4 3 2 2 3 3 1 2 1 0 1 1 1 0 0 3 2 0 1 1 1 1 1 0 2 5 7 9 10 11 11 12 12 11 12 12 14 14 14 15 16 16 15 15 14 15 15 14 14 12 12 10 9 9 8 5 2 3 4 4 5 6 6 5 4
0 0 1 0 1 2 1 2 2 2 1 1 4 2 5 6 2 2 2 2 5 3 1 1 1 1 0 2 2 4 1 0 1 3 0 1 2 2 1 1 1 0 1 2 1 2 3 6 7 7 9 11 12 11 12 13 13 14 14 12 13 15 16 15 15 15 15 15 15 16 14 14 13 10 10 9 8 7 2 4 4 4 6 6 4 4 5
1 2 1 1 2 1 2 3 1 3 3 3 5 3 4 1 3 4 4 2 0 1 3 2 2 4 4 3 2 2 2 1 1 3 1 1 1 0 1 1 1 2 1 3 4 4 4 6 6 7 9 10 11 12 12 13 14 16 16 15 15 14 15 16 15 15 15 15 15 14 14 15 14 12 10 9 9 10 6 3 5 5 5 5 4 4 4
1 0 1 1 1 0 1 2 3 4 6 6 6 1 2 6 4 2 4 1 2 2 2 0 1 1 2 2 0 1 2 1 0 2 2 1 0 1 1 1 1 2 4 4 5 3 4 4 5 8 9 8 9 11 11 12 13 14 14 15 13 12 13 13 14 14 13 12 12 13 13 13 13 12 12 11 10 9 8 9 9 6 4 4 5 4 5
1 1 0 0 2 3 4 2 0 3 4 6 5 4 2 3 2 2 1 2 3 3 5 3 1 2 1 0 1 0 1 2 1 2 2 1 2 1 0 1 3 4 5 5 5 3 4 4 6 7 7 8 9 10 11 11 12 12 12 13 11 11 11 14 14 14 13 11 11 11 11 12 13 13 14 13 9 5 9 13 12 10 8 8 7 8 11
0 2 3 3 4 4 2 1 0 3 6 5 2 2 1 0 0 1 3 1 3 5 4 3 1 1 1 2 1 0 1 1 2 2 1 2 2 1 2 2 3 5 5 5 5 3 4 5 6 7 8 8 8 9 9 10 11 11 11 11 11 10 11 12 13 12 12 11 11 11 12 12 10 11 11 10 10 11 12 14 14 12 11 10 11 11 11
1 1 2 3 4 5 5 4 2 4 6 6 1 1 2 3 1 1 2 4 3 6 2 1 1 1 1 1 0 1 2 1 1 1 2 2 2 3 3 3 4 5 5 7 5 4 4 4 5 6 6 7 8 9 9 9 10 10 10 10 10 11 11 11 11 11 10 11 12 11 10 11 12 11 12 15 16 16 15 12 12 13 11 8 9 10 10
Wind_Direction
352 352 352 352 353 353 353 351 350 350 351 0 354 334 16 28 229 286 163 190 101 59 238 254 318 248 243 280 268 259 275 249 279 302 288 291 241 258 206 222 241 248 227 287 276 207 257 255 233 259 223 256 252 113 256 285 319 305 272 188 230 167 288 303 294 299 287 296 280 270 263 262 287 253 123 119 214 218 213 211 197 244 275 176 11 244 264
351 352 351 351 352 353 352 351 349 346 357 349 329 1 13 288 278 315 254 237 95 57 315 316 298 282 288 288 272 258 257 275 304 275 299 298 307 248 228 293 209 264 202 250 264 328 334 255 279 296 28 281 193 172 193 202 228 251 233 165 222 182 224 177 8 352 333 332 351 1 350 191 202 202 174 186 190 213 244 293 61 320 231 175 136 224 266
348 350 351 351 352 352 352 351 347 343 344 353 324 343 299 282 246 234 302 314 96 245 195 249 295 300 305 312 312 319 264 215 233 280 295 299 231 9 250 222 214 246 282 256 240 269 245 279 305 357 231 262 243 240 198 201 216 243 263 174 184 174 190 164 218 213 289 285 240 248 352 335 318 263 198 208 225 228 244 269 310 237 254 183 155 236 254
346 349 350 352 353 352 351 350 347 342 340 348 145 251 357 11 24 300 14 321 278 253 238 255 282 310 334 327 297 266 303 307 300 303 298 280 259 195 186 347 351 288 302 293 268 203 222 212 289 12 298 293 312 262 231 212 218 236 247 250 178 179 137 116 156 170 200 225 240 260 263 277 311 310 325 267 227 224 206 161 197 239 268 250 225 231 285
346 348 350 353 354 355 353 351 348 343 340 350 134 271 162 264 66 353 336 319 168 258 284 291 10 313 328 308 306 312 307 303 308 4 308 339 325 292 139 212 344 291 253 266 291 210 214 222 243 271 249 228 235 206 210 203 216 235 251 246 102 96 62 203 182 215 234 249 264 267 274 284 279 296 304 310 272 210 201 206 234 234 247 267 279 219 226
345 346 350 353 354 356 356 355 351 346 342 345 93 29 341 27 307 88 92 262 284 351 333 358 306 287 250 250 267 278 306 344 335 327 297 313 317 334 257 229 250 277 252 298 298 320 330 145 276 285 240 304 271 350 152 181 214 213 227 211 165 156 148 208 175 249 258 256 272 282 285 260 265 276 278 271 278 258 221 221 233 197 218 228 256 277 315
343 346 349 351 353 355 357 360 356 349 342 340 78 57 337 87 310 300 13 12 283 264 276 293 283 296 287 241 294 322 334 333 329 313 311 323 320 6 323 313 319 323 283 171 244 342 342 337 303 272 318 351 332 17 181 232 185 184 232 241 182 95 292 236 199 275 283 271 268 272 271 282 272 257 255 250 250 247 231 243 246 220 237 203 256 293 290
341 344 348 350 353 355 358 359 359 355 344 342 58 59 48 22 353 325 340 212 283 285 292 289 314 316 318 334 320 324 322 329 326 329 327 318 310 344 327 315 320 318 123 184 228 201 221 225 278 270 283 321 247 265 208 252 199 176 211 190 254 129 249 162 33 352 284 273 272 252 249 242 277 263 241 254 273 281 254 234 243 235 244 229 245 261 280
338 342 347 350 352 355 357 0 0 359 353 28 21 52 37 300 237 230 324 321 301 303 327 334 324 316 335 7 335 328 331 327 325 305 287 258 312 333 319 316 315 322 128 210 252 262 225 217 213 231 217 225 228 114 282 93 351 238 196 146 203 175 220 126 126 223 262 255 307 317 309 293 247 270 295 299 331 330 279 236 229 224 236 210 217 262 254
336 338 344 348 354 355 355 0 360 4 5 34 344 20 336 309 281 330 182 292 304 315 319 311 341 333 354 354 322 323 317 310 330 327 256 292 315 314 320 315 317 316 328 303 303 303 261 220 228 223 229 229 258 268 268 293 238 295 232 181 146 185 140 162 151 238 278 299 327 311 322 349 344 285 230 268 271 235 261 269 261 246 219 218 220 233 210
334 338 343 351 355 355 354 359 357 7 15 19 10 337 331 354 338 328 296 300 255 11 332 312 16 277 342 327 319 320 305 319 327 334 304 331 317 326 323 316 327 319 312 316 306 288 283 255 216 197 222 229 243 246 260 263 240 205 216 172 190 148 161 172 151 187 252 249 280 302 357 331 241 226 159 329 285 291 294 286 289 283 193 207 202 218 230
334 340 348 356 352 353 355 355 357 1 20 355 327 296 263 319 315 262 10 340 297 320 330 288 300 304 317 308 314 312 320 322 315 312 306 302 295 306 313 320 334 320 314 313 310 307 281 269 167 170 200 231 238 246 244 250 258 226 224 222 203 184 161 180 156 164 260 244 268 47 262 239 257 289 275 260 266 233 263 266 271 281 293 291 295 283 258
335 343 352 352 351 352 353 356 355 353 359 357 4 334 293 320 291 290 265 261 276 323 320 307 302 293 282 301 318 310 306 301 303 306 288 284 305 316 322 327 314 311 315 312 313 337 357 321 313 213 249 228 236 233 239 240 245 241 228 216 192 172 172 170 190 174 46 57 42 19 260 264 296 298 299 302 91 196 343 347 317 318 325 311 294 283 271
331 340 348 348 350 348 348 351 351 345 344 347 355 300 296 330 326 308 1 316 288 255 296 297 287 289 321 321 310 307 308 305 301 287 303 312 303 302 319 321 313 311 309 308 314 357 0 26 14 10 334 1 7 13 264 243 230 224 214 212 201 180 139 125 201 227 236 190 182 223 302 314 305 334 329 43 335 331 98 248 284 286 302 324 293 286 284
326 330 338 338 346 344 344 346 346 337 336 340 317 299 303 303 301 306 269 260 289 298 250 241 282 320 320 310 319 317 316 317 331 327 311 288 277 285 298 304 317 318 313 326 334 15 37 21 28 6 340 31 8 287 314 334 304 238 222 227 197 167 182 216 175 260 133 160 268 326 359 272 281 230 248 170 153 149 177 132 277 282 255 287 302 302 315
321 322 323 332 338 339 340 343 338 335 323 338 317 289 281 268 275 264 278 284 299 298 243 204 338 318 303 298 316 318 317 323 330 314 318 326 312 328 330 334 322 317 330 346 334 8 353 51 355 51 32 325 261 302 318 324 325 316 331 293 104 75 106 138 155 185 71 85 194 226 231 245 217 262 268 189 173 152 197 87 288 269 300 312 307 334 331
317 315 316 321 331 332 335 335 334 328 325 330 314 304 289 307 328 297 304 283 223 247 285 303 294 273 293 302 306 305 327 321 344 351 336 327 326 311 306 330 318 337 356 352 349 24 12 28 351 351 292 265 335 314 299 13 335 322 338 10 5 63 90 103 76 129 202 155 165 251 203 249 268 279 318 25 136 353 80 302 276 253 315 315 324 325 324
316 314 315 318 323 332 332 331 327 325 322 327 317 302 282 299 250 299 268 277 297 277 240 238 283 308 298 289 294 289 286 299 328 303 249 289 305 313 336 332 336 336 9 9 355 29 15 14 4 351 314 340 317 321 359 313 312 312 331 317 281 327 323 142 213 209 212 180 263 312 301 307 356 348 326 317 326 77 186 221 236 298 313 313 304 288 277
309 313 316 318 326 330 330 326 323 318 323 318 320 293 255 270 337 345 255 267 242 260 210 288 290 271 267 271 261 278 274 303 299 301 298 322 264 327 323 281 281 344 346 346 359 35 24 346 307 321 331 320 1 12 302 352 313 302 331 359 354 334 292 284 22 260 274 230 219 248 245 270 295 291 326 338 4 282 224 229 257 302 304 303 296 288 287
305 312 316 317 322 328 328 326 320 315 317 322 313 279 286 293 270 242 270 285 261 272 280 270 257 259 258 253 273 284 307 300 222 211 208 264 309 354 339 7 336 10 309 338 40 323 52 346 341 330 8 322 276 291 319 265 276 314 305 290 211 289 318 278 305 277 290 52 304 321 306 240 54 311 312 75 113 244 267 313 312 303 290 293 298 281 286
301 308 309 307 316 326 328 323 316 313 315 318 323 298 293 253 276 269 233 262 294 297 299 217 234 243 253 259 255 264 263 262 267 260 246 252 308 350 324 286 321 1 312 6 5 343 2 328 342 330 303 304 291 330 321 318 316 282 248 310 307 311 353 316 313 172 208 302 262 226 214 272 289 261 232 225 201 235 282 297 306 296 297 292 301 289 281
299 301 298 301 311 319 323 316 311 312 313 310 310 300 284 292 299 302 294 291 276 255 267 287 288 276 265 252 257 246 244 244 250 241 262 280 224 216 256 297 290 293 282 18 31 343 12 312 320 351 325 305 339 289 313 333 317 272 283 303 349 285 230 191 254 281 147 216 230 245 267 272 272 245 274 282 288 279 281 286 283 293 294 297 287 287 304
295 295 294 302 314 319 320 310 307 309 307 306 304 250 279 294 284 284 313 292 256 261 273 278 271 271 277 268 247 245 241 234 242 241 219 241 282 206 228 247 271 232 271 102 138 234 250 303 266 247 294 237 275 311 307 189 255 305 305 177 211 247 219 147 143 265 267 270 242 256 255 255 264 248 250 256 285 298 311 309 308 293 291 287 282 295 301
291 293 297 309 314 316 313 306 306 304 303 300 297 275 283 258 281 303 283 236 268 295 277 242 313 284 238 280 285 243 234 235 220 229 220 186 235 284 255 229 226 285 257 220 184 244 264 215 247 279 268 269 315 296 300 321 265 245 319 324 232 269 353 25 276 277 341 294 249 231 245 266 273 268 276 288 294 292 306 303 298 293 296 304 300 294 296
286 289 299 307 308 309 306 303 304 304 302 301 303 287 276 276 241 242 281 312 322 352 302 302 254 257 267 265 270 271 251 248 251 230 211 200 212 228 253 219 175 217 271 273 40 24 46 317 318 328 285 268 224 277 217 229 289 106 324 280 322 307 211 194 236 264 248 255 275 272 273 268 263 218 266 299 320 328 312 274 254 272 288 292 304 326 333
281 284 292 298 300 299 301 301 303 301 303 302 303 293 284 280 288 292 279 258 249 253 284 299 291 255 273 304 290 268 280 278 262 259 240 222 213 219 241 266 264 245 266 271 127 274 223 250 244 246 246 290 193 246 277 208 272 287 256 267 235 225 158 268 190 221 263 280 281 284 300 294 241 212 209 208 254 285 310 317 311 298 283 318 332 341 325
278 281 282 285 292 294 297 297 294 293 290 293 292 272 267 269 237 222 237 251 303 289 229 257 282 288 337 296 284 292 278 257 262 248 251 234 227 229 232 243 256 258 248 285 328 216 184 234 182 248 191 234 248 262 261 293 245 273 270 268 248 347 266 238 21 327 303 276 297 356 347 311 306 312 317 333 329 327 318 306 294 286 312 345 352 326 298
270 269 268 277 288 291 293 293 299 303 303 303 295 279 264 263 248 215 215 222 201 243 284 286 305 300 304 266 240 272 292 284 261 260 256 252 232 227 224 230 234 247 232 202 295 250 209 235 250 230 235 292 328 291 242 247 287 284 256 261 203 195 232 145 216 194 271 280 279 245 235 272 268 277 304 350 328 304 304 298 293 305 321 314 289 274 273
264 264 272 280 285 289 291 297 304 307 311 317 300 297 285 250 251 220 212 203 210 252 269 279 277 284 295 310 318 314 303 267 276 262 261 263 257 233 220 221 215 220 193 161 200 189 204 235 201 211 235 214 173 274 341 316 308 274 263 267 244 226 194 210 231 228 269 279 292 308 234 261 285 296 299 286 202 258 328 319 315 307 285 263 233 241 312
260 262 273 280 285 288 292 295 302 306 319 331 333 312 339 326 154 67 67 119 202 254 287 316 311 275 298 304 288 294 299 307 294 275 261 261 255 240 226 212 221 196 173 185 166 231 221 225 253 261 244 142 210 233 282 245 298 269 275 268 254 268 257 249 225 188 254 271 57 225 241 266 276 281 276 276 215 134 3 315 294 292 297 300 327 344 18
256 262 273 281 284 288 291 294 295 299 311 345 339 327 358 337 242 149 75 60 39 357 261 218 254 302 303 237 265 290 304 306 303 304 291 265 247 245 233 187 214 156 191 212 209 231 128 264 216 271 264 183 160 209 226 292 286 291 284 284 272 269 265 261 242 219 245 303 312 248 276 284 296 308 291 303 350 21 346 294 300 310 310 313 310 337 8
255 265 277 281 287 289 291 293 292 293 270 251 233 192 188 190 254 299 308 1 12 24 339 323 306 300 290 296 266 271 286 281 278 286 277 271 297 245 238 186 205 179 176 183 209 112 236 219 183 257 274 225 166 262 246 239 265 268 286 296 293 280 270 256 270 285 261 228 140 24 320 299 302 287 282 306 327 324 304 287 293 301 312 318 316 11 340
258 270 279 284 289 293 294 292 290 281 248 259 263 268 270 272 273 274 283 306 334 236 210 243 266 311 272 284 315 302 244 311 312 4 319 260 257 324 324 275 177 171 197 114 206 209 216 168 168 264 251 146 160 233 268 260 281 302 305 304 300 291 293 16 2 300 268 255 122 115 265 286 290 285 277 323 328 328 315 307 299 303 307 304 350 3 4
261 272 284 289 291 293 294 289 282 285 288 276 275 246 241 242 251 257 240 118 202 224 173 209 287 276 274 322 329 280 326 338 286 339 324 294 266 358 268 351 324 167 231 178 247 212 314 89 211 232 357 290 228 49 338 330 330 334 342 338 345 351 341 337 302 277 285 83 289 236 253 269 290 336 345 332 349 338 315 298 273 263 265 307 9 48 29
264 280 286 294 293 291 286 281 278 240 244 251 255 256 245 248 237 226 164 156 108 300 189 259 225 288 312 322 301 278 295 354 307 298 268 278 15 309 310 17 317 31 281 112 18 196 197 234 166 80 259 306 40 33 309 316 323 339 347 344 343 348 333 332 319 332 349 354 355 343 327 347 25 36 336 339 1 343 317 316 348 79 70 36 32 21 26
270 285 293 296 296 290 287 257 200 210 222 226 231 281 214 139 108 144 170 177 128 158 235 241 196 239 239 290 301 284 324 305 257 309 254 286 337 299 332 137 355 261 239 113 220 344 228 235 112 300 324 58 52 290 322 315 318 344 358 352 345 339 311 290 299 328 350 12 19 16 5 356 2 28 114 92 29 310 305 7 4 19 69 51 33 20 21
280 291 299 299 288 182 229 218 160 196 226 209 164 101 68 75 110 107 122 313 277 122 206 237 248 229 197 249 277 272 5 312 319 339 322 11 311 293 20 32 257 275 17 348 338 252 260 179 103 78 37 61 328 304 310 300 346 2 351 343 329 306 299 316 344 9 12 14 25 22 18 13 355 347 21 28 357 327 357 21 355 9 45 57 43 37 34
284 297 294 290 271 298 307 240 205 212 138 119 128 63 349 28 114 328 62 175 267 219 240 211 252 244 184 194 251 253 307 264 22 340 305 259 354 313 318 59 244 13 315 265 257 206 136 58 86 107 106 111 228 332 348 353 352 356 359 349 323 312 319 323 343 21 27 16 11 7 8 10 1 344 340 341 352 28 340 341 9 350 347 64 59 60 51
286 265 224 221 185 234 186 345 10 93 89 355 74 62 299 62 73 294 222 202 286 216 205 216 251 191 186 222 263 267 210 263 327 358 324 278 52 309 5 15 299 27 291 10 295 6 358 345 70 57 39 339 2 3 355 352 353 359 358 348 339 340 335 333 342 29 63 126 182 216 117 69 4 344 336 320 326 344 346 14 22 41 53 57 56 57 62
146 211 211 192 212 227 297 335 15 353 53 29 307 116 265 198 110 254 168 110 253 222 174 242 215 201 193 207 226 310 169 132 248 302 258 305 199 242 265 331 265 28 282 332 262 354 353 341 52 48 10 351 3 358 353 350 353 355 352 338 347 349 347 342 340 340 325 276 313 9 23 35 27 360 349 336 312 295 313 338 4 53 64 65 61 59 58
214 232 268 247 279 323 296 333 332 88 97 310 325 275 102 298 226 200 171 233 229 236 183 199 220 245 221 214 185 252 276 241 251 211 169 268 259 61 49 291 246 308 281 286 285 19 18 69 48 42 349 348 5 356 349 357 352 343 345 350 351 350 348 347 346 347 351 350 344 348 350 358 347 334 307 273 263 280 305 310 68 79 75 69 66 66 67
136 196 291 309 259 262 315 336 137 89 304 173 128 259 221 211 260 316 166 181 247 226 237 177 231 268 275 177 201 198 269 229 240 38 92 316 295 333 277 269 359 111 274 248 300 348 44 57 33 337 333 13 3 352 353 354 349 343 345 351 353 351 349 349 350 350 349 350 341 326 319 335 326 324 311 341 327 313 287 327 74 74 99 108 90 71 64
295 255 207 274 338 298 174 35 245 130 145 219 126 304 267 237 219 186 264 244 255 196 280 163 258 307 312 41 327 234 236 251 353 315 35 254 294 53 108 314 25 305 244 296 25 347 63 71 19 358 19 7 353 348 349 350 342 342 343 353 355 349 348 348 350 346 349 350 352 350 334 324 323 297 309 9 330 243 221 261 132 112 90 86 85 81 73
210 263 237 261 97 278 110 299 232 72 258 175 154 213 241 296 294 194 257 265 320 21 319 99 292 88 332 292 269 298 359 349 42 67 306 276 127 283 31 265 220 241 279 24 3 64 112 100 348 8 8 350 352 351 349 351 348 342 346 352 352 352 352 348 353 357 353 351 352 351 341 333 334 354 354 357 19 322 288 59 78 97 86 77 74 71 64
77 132 183 312 225 240 81 306 208 140 202 230 172 216 199 200 243 206 214 253 82 230 275 60 74 63 333 281 2 302 101 259 297 101 258 266 318 282 172 257 255 27 97 260 350 46 42 55 16 20 5 357 350 350 346 347 349 347 338 345 355 355 352 351 350 351 350 351 347 346 343 336 337 1 354 326 329 266 268 358 335 90 88 86 74 60 39
145 164 152 123 313 284 175 240 172 266 268 161 215 200 203 252 217 256 270 52 45 341 35 13 47 63 343 268 135 246 296 352 2 261 240 15 354 287 244 248 73 40 346 36 46 87 89 30 16 14 1 353 350 348 346 347 347 345 349 353 349 348 350 349 348 346 348 348 347 347 341 339 343 338 339 350 319 287 48 61 88 107 101 78 65 69 47
11 300 171 241 189 259 142 182 242 205 194 286 243 220 252 273 31 16 14 50 41 335 333 280 106 184 251 299 1 341 350 333 253 265 291 272 218 265 18 67 292 5 52 352 2 7 44 24 16 1 354 349 347 348 348 347 347 346 344 345 350 349 349 348 346 345 344 346 351 350 347 341 334 333 344 356 344 309 35 63 48 67 84 104 114 105 79
178 235 134 125 218 208 184 255 254 304 291 264 284 288 295 345 70 19 339 329 258 45 31 12 0 340 3 301 87 214 249 250 295 291 203 237 332 25 2 21 70 47 42 10 18 31 20 22 1 356 356 350 345 344 346 346 345 344 341 345 350 352 349 346 343 341 343 353 352 349 342 342 338 342 341 350 4 352 339 46 82 82 82 77 75 75 67
183 158 181 230 232 262 246 257 16 327 292 313 305 15 50 67 66 359 295 321 24 340 263 73 223 86 284 268 343 14 325 289 105 268 335 349 75 265 352 320 336 60 64 19 355 359 16 354 345 355 350 348 347 343 343 343 341 337 338 342 353 355 345 343 339 334 339 353 356 353 348 346 342 346 350 2 11 6 11 14 17 21 36 72 83 69 49
109 318 277 192 342 307 257 269 22 276 326 338 360 18 25 81 58 340 316 28 337 3 1 17 10 91 250 80 320 325 265 335 347 313 311 1 19 327 63 64 56 25 359 355 330 351 18 358 356 350 347 348 347 345 345 342 341 336 338 338 350 352 350 345 341 337 342 354 356 356 353 356 358 355 355 347 331 332 22 27 19 12 11 9 16 43 50
225 151 235 183 177 226 27 344 322 321 329 314 292 322 57 122 152 315 316 82 18 37 41 58 309 41 353 354 344 346 322 0 358 311 102 16 328 0 48 49 36 9 343 329 326 19 16 14 6 351 344 344 345 347 346 346 344 342 340 342 348 355 352 349 347 339 342 352 356 4 9 4 352 351 344 346 358 15 26 23 16 5 5 30 46 59 60
170 201 252 271 237 228 231 254 317 245 239 246 250 285 99 36 308 273 309 80 53 72 32 305 52 14 14 17 304 247 282 340 243 327 35 49 3 19 26 18 4 358 347 336 343 24 13 19 9 357 341 346 348 352 347 350 348 349 349 349 351 357 1 356 350 346 347 358 1 6 8 2 0 3 8 12 16 21 19 10 2 2 355 15 42 47 58